SWR93 SBGR-LSZH

Flight info

Callsign SWR93
Flight time N/A
Altitude 35000
Route VUMEV UZ14 AMBET UN857 EDVUP/N0465F370 UN857 ERETU DCT TURUP UA302 ANITI UR975 SAKLI/N0451F390 UR975 ARDAR UA854 BRENA UA29 TRB DCT DAAG/N0445F400 DCT RISEP DCT OBLAD DCT SOSUR DCT MFB DCT EMMEF DCT BANKO DCT KORED/N0369F260 N871 BERSU
Aircraft A343/H-SDE2E3FGHIJ4J5M1RWXY/LB1D1

Departure

Time 2026-05-04 07:15
Airport São Paulo/Guarulhos–Governor André Franco Montoro International Airport (SBGR)

Arrival

Time N/A
Airport Zürich Airport (LSZH)
Time Latitude Longitude Altitude Speed Heading
2026-05-04 06:46 -23.42610 -46.47462 2477 ft 0 kts 72°
2026-05-04 07:05 -23.42612 -46.47472 2474 ft 2 kts 75°
2026-05-04 07:05 -23.42616 -46.47489 2472 ft 2 kts 77°
2026-05-04 07:05 -23.42620 -46.47506 2472 ft 2 kts 81°
2026-05-04 07:06 -23.42623 -46.47542 2474 ft 2 kts 99°
2026-05-04 07:06 -23.42619 -46.47560 2474 ft 2 kts 128°
2026-05-04 07:06 -23.42607 -46.47572 2473 ft 2 kts 159°
2026-05-04 07:07 -23.42600 -46.47576 2472 ft 0 kts 165°
2026-05-04 07:08 -23.42599 -46.47576 2472 ft 0 kts 165°
2026-05-04 07:09 -23.42601 -46.47575 2472 ft 1 kts 165°
2026-05-04 07:09 -23.42617 -46.47571 2474 ft 5 kts 165°
2026-05-04 07:09 -23.42669 -46.47555 2474 ft 9 kts 165°
2026-05-04 07:10 -23.42734 -46.47534 2476 ft 10 kts 163°
2026-05-04 07:10 -23.42797 -46.47513 2477 ft 9 kts 163°
2026-05-04 07:12 -23.43127 -46.47849 2477 ft 17 kts 253°
2026-05-04 07:12 -23.43159 -46.47971 2472 ft 17 kts 253°
2026-05-04 07:12 -23.43183 -46.48057 2477 ft 18 kts 253°
2026-05-04 07:12 -23.43215 -46.48181 2476 ft 16 kts 254°
2026-05-04 07:13 -23.43265 -46.48331 2476 ft 15 kts 228°
2026-05-04 07:13 -23.43356 -46.48340 2477 ft 13 kts 162°
2026-05-04 07:13 -23.43411 -46.48302 2478 ft 6 kts 110°
2026-05-04 07:14 -23.43188 -46.47441 2471 ft 99 kts 73°
2026-05-04 07:14 -23.42955 -46.46588 2477 ft 135 kts 73°
2026-05-04 07:15 -23.42658 -46.45497 2502 ft 162 kts 74°
2026-05-04 07:15 -23.42381 -46.44364 3096 ft 146 kts 74°
2026-05-04 07:15 -23.42097 -46.43332 3539 ft 144 kts 72°
2026-05-04 07:15 -23.41783 -46.42290 3792 ft 145 kts 71°
2026-05-04 07:16 -23.41458 -46.41260 4022 ft 148 kts 70°
2026-05-04 07:16 -23.41095 -46.40163 4160 ft 159 kts 70°
2026-05-04 07:16 -23.40695 -46.39001 4317 ft 168 kts 69°
2026-05-04 07:16 -23.40287 -46.37779 4519 ft 176 kts 71°
2026-05-04 07:17 -23.39906 -46.36483 4727 ft 184 kts 70°
2026-05-04 07:17 -23.39344 -46.35231 5075 ft 182 kts 60°
2026-05-04 07:17 -23.38709 -46.34039 5410 ft 183 kts 56°
2026-05-04 07:17 -23.37995 -46.32844 5598 ft 194 kts 56°
2026-05-04 07:18 -23.37252 -46.31578 5799 ft 202 kts 57°
2026-05-04 07:18 -23.36497 -46.30254 6025 ft 210 kts 57°
2026-05-04 07:18 -23.35731 -46.28875 6275 ft 216 kts 57°
2026-05-04 07:18 -23.34940 -46.27439 6422 ft 230 kts 56°
2026-05-04 07:19 -23.34043 -46.25921 6576 ft 246 kts 55°
2026-05-04 07:19 -23.33084 -46.24310 6763 ft 260 kts 55°
2026-05-04 07:19 -23.32095 -46.22631 6967 ft 273 kts 56°
2026-05-04 07:19 -23.31061 -46.20862 7330 ft 280 kts 56°
2026-05-04 07:20 -23.30013 -46.19063 7748 ft 283 kts 56°
2026-05-04 07:20 -23.28955 -46.17240 8195 ft 286 kts 56°
2026-05-04 07:20 -23.27886 -46.15399 8652 ft 289 kts 56°
2026-05-04 07:20 -23.26804 -46.13539 9104 ft 292 kts 56°
2026-05-04 07:22 -23.16674 -46.02170 11078 ft 340 kts 17°
2026-05-04 07:22 -23.14432 -46.01333 11249 ft 350 kts 17°
2026-05-04 07:23 -23.12059 -46.00610 11407 ft 358 kts
2026-05-04 07:23 -23.09567 -46.00237 11637 ft 364 kts
2026-05-04 07:23 -23.07042 -45.99941 11936 ft 368 kts
2026-05-04 07:23 -23.04483 -45.99643 12265 ft 371 kts
2026-05-04 07:24 -23.01901 -45.99336 12573 ft 375 kts
2026-05-04 07:24 -22.99301 -45.99024 12888 ft 378 kts
2026-05-04 07:24 -22.96678 -45.98707 13212 ft 381 kts
2026-05-04 07:24 -22.94033 -45.98387 13543 ft 383 kts
2026-05-04 07:25 -22.91375 -45.98052 13846 ft 386 kts
2026-05-04 07:26 -22.74852 -45.87360 15942 ft 407 kts 33°
2026-05-04 07:27 -22.72533 -45.85582 16235 ft 409 kts 32°
2026-05-04 07:27 -22.70193 -45.83806 16548 ft 411 kts 32°
2026-05-04 07:27 -22.67844 -45.82035 16853 ft 413 kts 32°
2026-05-04 07:27 -22.65474 -45.80254 17165 ft 415 kts 32°
2026-05-04 07:28 -22.63095 -45.78470 17456 ft 417 kts 32°
2026-05-04 07:28 -22.60697 -45.76673 17741 ft 420 kts 32°
2026-05-04 07:28 -22.58285 -45.74865 17995 ft 423 kts 32°
2026-05-04 07:28 -22.55865 -45.73051 18297 ft 425 kts 32°
2026-05-04 07:29 -22.53428 -45.71225 18600 ft 426 kts 32°
2026-05-04 07:29 -22.50993 -45.69398 18875 ft 428 kts 31°
2026-05-04 07:29 -22.48538 -45.67558 19115 ft 430 kts 31°
2026-05-04 07:29 -22.46099 -45.65733 19377 ft 433 kts 31°
2026-05-04 07:30 -22.43617 -45.63877 19634 ft 435 kts 31°
2026-05-04 07:30 -22.41120 -45.62006 19922 ft 438 kts 31°
2026-05-04 07:30 -22.38615 -45.60133 20226 ft 439 kts 31°
2026-05-04 07:30 -22.36092 -45.58246 20488 ft 442 kts 31°
2026-05-04 07:31 -22.33557 -45.56352 20751 ft 444 kts 31°
2026-05-04 07:31 -22.31014 -45.54451 21006 ft 446 kts 31°
2026-05-04 07:33 -22.12875 -45.40927 22784 ft 460 kts 31°
2026-05-04 07:33 -22.10226 -45.38956 23013 ft 463 kts 31°
2026-05-04 07:33 -22.07567 -45.36978 23271 ft 465 kts 30°
2026-05-04 07:33 -22.04895 -45.34990 23539 ft 467 kts 30°
2026-05-04 07:34 -22.02224 -45.32983 23761 ft 470 kts 32°
2026-05-04 07:34 -21.99598 -45.30846 23985 ft 473 kts 34°
2026-05-04 07:34 -21.97018 -45.28634 24218 ft 475 kts 35°
2026-05-04 07:34 -21.94437 -45.26385 24437 ft 477 kts 35°
2026-05-04 07:35 -21.91852 -45.24139 24641 ft 478 kts 34°
2026-05-04 07:35 -21.89252 -45.21900 24903 ft 479 kts 34°
2026-05-04 07:35 -21.86639 -45.19671 25137 ft 480 kts 34°
2026-05-04 07:35 -21.84009 -45.17446 25346 ft 481 kts 33°
2026-05-04 07:36 -21.81399 -45.15246 25579 ft 483 kts 33°
2026-05-04 07:36 -21.78749 -45.13018 25785 ft 485 kts 33°